Beckley, WV

4:13 AM EDT on September 20, 2019 (GMT -0400)
Raleigh County Memorial

Weather History for KBKW - August, 2019

Change the Weather History Date:

Sunday, August 25, 2019

  Actual Average Record
Temperature  
Mean Temperature 64 °F 69 °F  
Max Temperature 72 °F 79 °F 91 °F (1943)
Min Temperature 55 °F 60 °F 37 °F (1951)
Degree Days  
Heating Degree Days 2 1  
Month to date heating degree days 5 1  
Since 1 June heating degree days 41 48  
Since 1 July heating degree days 8 9  
Cooling Degree Days 0 5  
Month to date cooling degree days 178 138  
Year to date cooling degree days 679 471  
Since 1 June cooling degree days 559 430  
Growing Degree Days 14 (Base 50)    
Moisture  
Dew Point 52 °F    
Average Humidity 68    
Maximum Humidity 87    
Minimum Humidity 53    
Precipitation  
Precipitation 0.00 in 0.10 in 1.59 in (1999)
Month to date precipitation 3.23 2.95  
Year to date precipitation 31.35 29.14  
Sea Level Pressure  
Sea Level Pressure 30.14 in    
Wind  
Wind Speed 10 mph ()    
Max Wind Speed 17 mph    
Max Gust Speed 25 mph    
Visibility 10.0 miles    
Events      
T = Trace of Precipitation, MM = Missing Value Source: Averaged Metar Reports

Daily Weather History Graph

Daily Weather History Graph

Search for Another Location

Airport or City:

Astronomy

Aug. 25, 2019 Rise Set
Actual Time 6:48 AM EDT 8:04 PM EDT
Civil Twilight 6:21 AM EDT 8:31 PM EDT
Nautical Twilight 5:48 AM EDT 9:03 PM EDT
Astronomical Twilight 5:14 AM EDT 9:37 PM EDT
Moon 1:25 AM EDT (8/25) 4:19 PM EDT (8/25)
Length of Visible Light 14h 10m
Length of Day
13h 15m
Waning Crescent, 29% of the Moon is Illuminated
Aug 25
Waning Crescent
Aug 30
New
Sep 5
First Quarter
Sep 14
Full
Sep 21
Last Quarter

Hourly Weather History & Observations

Time (EDT) Temp. Dew Point Humidity Pressure Visibility Wind Dir Wind Speed Gust Speed Precip Events Conditions
12:51 AM 57.9 °F 54.0 °F 87% 30.18 in 10.0 mi SE 10.4 mph - N/A   Clear
1:51 AM 57.0 °F 53.1 °F 87% 30.16 in 10.0 mi ESE 6.9 mph - N/A   Clear
2:51 AM 57.0 °F 52.0 °F 83% 30.14 in 10.0 mi ESE 9.2 mph - N/A   Clear
3:51 AM 55.9 °F 51.1 °F 84% 30.14 in 10.0 mi ESE 12.7 mph - N/A   Clear
4:51 AM 57.0 °F 48.9 °F 74% 30.14 in 10.0 mi ESE 11.5 mph - N/A   Clear
5:51 AM 55.9 °F 50.0 °F 80% 30.14 in 10.0 mi ESE 11.5 mph - N/A   Clear
6:51 AM 55.9 °F 48.9 °F 77% 30.15 in 10.0 mi ESE 10.4 mph - N/A   Clear
7:51 AM 57.0 °F 50.0 °F 77% 30.16 in 10.0 mi ESE 11.5 mph - N/A   Clear
8:51 AM 60.1 °F 52.0 °F 75% 30.16 in 10.0 mi ESE 11.5 mph - N/A   Clear
9:51 AM 62.1 °F 52.0 °F 70% 30.18 in 10.0 mi SE 16.1 mph 25.3 mph N/A   Partly Cloudy
10:51 AM 64.9 °F 54.0 °F 68% 30.18 in 10.0 mi ESE 10.4 mph 18.4 mph N/A   Clear
11:51 AM 66.9 °F 54.0 °F 63% 30.16 in 10.0 mi SE 13.8 mph 20.7 mph N/A   Scattered Clouds
12:03 PM 66.9 °F 53.1 °F 61% 30.22 in 10.0 mi SE 13.8 mph 21.9 mph N/A   Mostly Cloudy
12:51 PM 69.1 °F 54.0 °F 58% 30.14 in 10.0 mi SE 11.5 mph - N/A   Mostly Cloudy
1:51 PM 69.1 °F 53.1 °F 57% 30.14 in 10.0 mi ESE 12.7 mph 17.3 mph N/A   Scattered Clouds
2:51 PM 70.0 °F 53.1 °F 55% 30.12 in 10.0 mi ESE 12.7 mph - N/A   Scattered Clouds
3:51 PM 71.1 °F 53.1 °F 53% 30.11 in 10.0 mi ESE 13.8 mph - N/A   Mostly Cloudy
4:51 PM 72.0 °F 54.0 °F 53% 30.10 in 10.0 mi ESE 12.7 mph - N/A   Scattered Clouds
5:51 PM 70.0 °F 53.1 °F 55% 30.09 in 10.0 mi ESE 12.7 mph - N/A   Partly Cloudy
6:51 PM 69.1 °F 53.1 °F 57% 30.09 in 10.0 mi ESE 6.9 mph 16.1 mph N/A   Clear
7:51 PM 64.9 °F 51.1 °F 61% 30.10 in 10.0 mi ESE 9.2 mph - N/A   Clear
8:51 PM 63.0 °F 51.1 °F 65% 30.12 in 10.0 mi SSE 9.2 mph - N/A   Clear
9:51 PM 61.0 °F 51.1 °F 70% 30.13 in 10.0 mi SE 11.5 mph - N/A   Clear
10:51 PM 60.1 °F 50.0 °F 69% 30.14 in 10.0 mi SE 10.4 mph - N/A   Clear
11:51 PM 59.0 °F 48.9 °F 69% 30.12 in 10.0 mi SE 9.2 mph - N/A   Clear